Date,TemperatureHighF,TemperatureAvgF,TemperatureLowF,DewpointHighF,DewpointAvgF,DewpointLowF,HumidityHigh,HumidityAvg,HumidityLow,PressureMaxIn,PressureMinIn,WindSpeedMaxMPH,WindSpeedAvgMPH,GustSpeedMaxMPH,PrecipitationSumIn
2013-2-1,25.9,21.2,16.0,17.0,9.3,3.0,78,61,47,31.01,30.42,17,5,21,0.00
2013-2-2,23.4,17.8,9.3,15.0,6.0,2.0,87,61,49,31.17,30.99,10,2,14,0.00
2013-2-3,25.8,19.9,11.9,18.0,15.7,10.0,93,84,66,31.00,30.66,3,0,6,0.00
2013-2-4,22.6,17.4,13.3,14.0,8.6,4.0,94,70,48,30.87,30.66,13,3,21,0.00
2013-2-5,28.9,19.5,11.5,18.0,10.9,4.0,90,70,49,30.97,30.87,4,1,11,0.00
2013-2-6,32.0,23.7,15.8,23.0,15.8,4.0,95,74,48,31.23,30.86,13,2,18,0.00
2013-2-7,26.7,16.9,4.8,6.0,2.8,1.0,89,57,37,31.48,31.23,6,1,11,0.00
2013-2-8,20.6,17.8,13.7,18.4,14.3,0.0,93,87,44,31.44,30.66,20,3,24,0.00
2013-2-9,17.7,13.8,8.9,15.0,10.7,1.0,94,87,65,31.21,30.62,18,6,24,0.00
2013-2-10,36.6,18.5,7.4,13.0,3.8,-1.0,90,56,24,31.41,31.21,7,2,17,0.01
2013-2-11,39.6,29.5,8.6,39.0,26.3,6.0,99,88,49,31.31,30.55,6,1,11,0.08
2013-2-12,36.8,33.5,30.7,36.0,28.3,24.0,99,81,70,30.77,30.53,13,4,21,0.00
2013-2-13,38.0,30.5,25.4,25.0,22.8,21.0,84,73,57,30.76,30.63,7,1,14,0.00
2013-2-14,42.8,29.0,16.2,25.0,20.4,15.0,93,73,44,30.90,30.62,5,1,12,0.00
2013-2-15,48.7,33.9,21.4,32.0,27.0,20.0,95,78,51,30.90,30.81,15,2,17,0.00
2013-2-16,35.4,29.6,22.7,28.0,23.1,8.0,97,78,53,30.87,30.65,6,1,14,0.05
2013-2-17,22.6,15.6,9.8,9.0,3.7,-1.0,78,59,49,30.65,30.34,26,8,33,0.00
2013-2-18,26.4,17.0,6.8,2.0,-1.3,-5.0,67,47,25,31.11,30.65,21,6,30,0.00
2013-2-19,42.2,30.2,13.7,38.0,21.3,2.0,97,71,46,31.14,30.50,6,1,13,0.18
2013-2-20,35.2,25.9,20.0,35.0,18.8,11.0,98,75,52,30.67,30.45,19,5,23,0.02
2013-2-21,25.8,21.0,17.1,15.0,12.1,8.0,84,69,54,31.21,30.66,15,5,22,0.00
2013-2-22,39.1,26.2,11.1,22.0,17.9,9.0,95,73,47,31.36,31.21,4,1,11,0.00
2013-2-23,31.2,29.5,25.8,30.0,26.6,21.0,97,89,79,31.26,30.84,6,1,11,0.00
2013-2-24,33.6,31.5,29.2,32.3,30.6,29.0,98,96,93,30.84,30.64,5,0,9,0.01
2013-2-25,34.1,30.4,22.8,32.0,29.2,22.0,98,95,89,31.16,30.81,2,0,4,0.00
2013-2-26,39.3,32.2,24.6,33.0,29.0,24.0,98,88,74,31.25,31.07,7,1,13,0.29
2013-2-27,36.1,32.2,30.5,36.0,31.5,28.0,99,97,88,31.05,30.50,15,5,29,0.24
2013-2-28,39.0,32.3,29.2,38.0,32.0,29.0,99,98,97,30.53,30.45,3,0,6,0.13